QPF
0.00 0.00 0.00 0.00 0.00 0.00 0.00 0.00 0.00 0.00 0.00 0.00 0.00 0.00 0.00 0.00 0.00 0.00 0.00 0.00 0.00 0.00 0.00 0.00 0.00 0.00 0.00 0.00 0.00 0.00 0.00 0.00 0.00 0.00 0.02 0.03 0.06 0.09 0.09 0.08 0.11 0.15 0.14 0.11
0.00 0.00 0.00 0.00 0.00 0.00 0.00 0.00 0.00 0.00 0.00 0.00 0.00 0.00 0.00 0.00 0.00 0.00 0.00 0.00 0.00 0.00 0.00 0.00 0.00 0.00 0.00 0.00 0.00 0.00 0.00 0.00 0.00 0.01 0.02 0.04 0.05 0.06 0.08 0.09 0.12 0.15 0.14 0.19
0.00 0.00 0.00 0.00 0.00 0.00 0.00 0.00 0.00 0.00 0.00 0.00 0.00 0.00 0.00 0.00 0.00 0.00 0.00 0.00 0.00 0.00 0.00 0.00 0.00 0.00 0.00 0.00 0.00 0.00 0.00 0.00 0.00 0.03 0.05 0.04 0.06 0.10 0.10 0.09 0.09 0.10 0.13 0.14
0.00 0.00 0.00 0.00 0.00 0.00 0.00 0.00 0.00 0.00 0.00 0.00 0.00 0.00 0.00 0.00 0.00 0.00 0.00 0.00 0.00 0.00 0.00 0.00 0.00 0.00 0.00 0.00 0.00 0.00 0.00 0.00 0.00 0.02 0.02 0.02 0.01 0.03 0.06 0.08 0.07 0.06 0.09 0.13
0.00 0.00 0.00 0.00 0.00 0.00 0.00 0.00 0.00 0.00 0.00 0.00 0.00 0.00 0.00 0.00 0.00 0.00 0.00 0.00 0.00 0.00 0.00 0.00 0.00 0.00 0.00 0.00 0.00 0.00 0.00 0.00 0.00 0.00 0.00 0.01 0.01 0.01 0.00 0.02 0.04 0.03 0.02 0.04
0.00 0.00 0.00 0.00 0.00 0.00 0.00 0.00 0.00 0.00 0.00 0.00 0.00 0.00 0.00 0.00 0.00 0.00 0.00 0.00 0.00 0.00 0.00 0.00 0.00 0.00 0.00 0.00 0.00 0.00 0.00 0.00 0.00 0.00 0.00 0.00 0.00 0.01 0.03 0.03 0.03 0.03 0.04 0.05
0.00 0.00 0.00 0.00 0.00 0.00 0.00 0.00 0.00 0.00 0.00 0.00 0.00 0.00 0.00 0.00 0.00 0.00 0.00 0.00 0.00 0.00 0.00 0.00 0.00 0.00 0.00 0.00 0.00 0.00 0.00 0.00 0.00 0.00 0.00 0.00 0.00 0.00 0.00 0.02 0.03 0.03 0.03 0.04
0.00 0.00 0.00 0.00 0.00 0.00 0.00 0.00 0.00 0.00 0.00 0.00 0.00 0.00 0.00 0.00 0.00 0.00 0.00 0.00 0.00 0.00 0.00 0.00 0.00 0.00 0.00 0.00 0.00 0.00 0.00 0.00 0.00 0.00 0.00 0.00 0.00 0.00 0.00 0.00 0.00 0.02 0.03 0.02
0.02 0.00 0.00 0.02 0.00 0.00 0.00 0.00 0.00 0.00 0.00 0.00 0.00 0.00 0.00 0.00 0.00 0.00 0.00 0.00 0.00 0.00 0.00 0.00 0.00 0.00 0.00 0.00 0.00 0.00 0.00 0.00 0.00 0.00 0.00 0.00 0.00 0.00 0.00 0.00 0.00 0.01 0.01 0.02
0.01 0.01 0.00 0.00 0.00 0.00 0.00 0.00 0.00 0.00 0.00 0.00 0.00 0.00 0.00 0.00 0.00 0.00 0.00 0.00 0.00 0.00 0.00 0.00 0.00 0.00 0.00 0.00 0.00 0.00 0.00 0.00 0.00 0.00 0.00 0.00 0.00 0.00 0.00 0.00 0.00 0.01 0.02 0.01
0.00 0.00 0.00 0.02 0.02 0.00 0.00 0.00 0.00 0.00 0.00 0.00 0.00 0.00 0.00 0.00 0.00 0.00 0.00 0.00 0.00 0.00 0.00 0.00 0.00 0.00 0.00 0.00 0.00 0.00 0.00 0.00 0.00 0.00 0.00 0.00 0.00 0.00 0.00 0.00 0.00 0.01 0.01 0.01
0.00 0.00 0.00 0.00 0.01 0.00 0.00 0.00 0.00 0.00 0.00 0.00 0.00 0.00 0.00 0.00 0.00 0.00 0.00 0.00 0.00 0.00 0.00 0.00 0.00 0.00 0.00 0.00 0.00 0.00 0.00 0.00 0.00 0.00 0.00 0.00 0.00 0.00 0.00 0.00 0.00 0.00 0.00 0.00
0.00 0.00 0.00 0.00 0.00 0.00 0.00 0.00 0.00 0.00 0.00 0.00 0.00 0.00 0.00 0.00 0.00 0.00 0.00 0.00 0.00 0.00 0.00 0.00 0.00 0.00 0.00 0.00 0.00 0.00 0.00 0.00 0.00 0.00 0.00 0.00 0.00 0.00 0.00 0.00 0.00 0.00 0.00 0.00
0.00 0.00 0.00 0.00 0.00 0.00 0.00 0.00 0.00 0.00 0.00 0.00 0.00 0.00 0.00 0.00 0.00 0.00 0.00 0.00 0.00 0.00 0.00 0.00 0.00 0.00 0.00 0.00 0.00 0.00 0.00 0.00 0.00 0.00 0.00 0.00 0.00 0.00 0.00 0.00 0.00 0.00 0.00 0.00
0.00 0.00 0.00 0.00 0.00 0.00 0.00 0.00 0.00 0.00 0.00 0.00 0.00 0.00 0.00 0.00 0.00 0.00 0.00 0.00 0.00 0.00 0.00 0.00 0.00 0.00 0.00 0.00 0.00 0.00 0.00 0.00 0.00 0.00 0.00 0.00 0.00 0.00 0.00 0.00 0.00 0.00 0.00 0.00
0.00 0.00 0.00 0.00 0.00 0.00 0.00 0.00 0.00 0.00 0.00 0.00 0.00 0.00 0.00 0.00 0.00 0.00 0.00 0.00 0.00 0.00 0.00 0.00 0.00 0.00 0.00 0.00 0.00 0.00 0.00 0.00 0.00 0.00 0.00 0.00 0.00 0.00 0.00 0.00 0.00 0.00 0.00 0.00
0.00 0.00 0.00 0.00 0.00 0.00 0.00 0.00 0.00 0.00 0.00 0.00 0.00 0.00 0.00 0.00 0.00 0.00 0.00 0.00 0.00 0.00 0.00 0.00 0.00 0.00 0.00 0.00 0.00 0.00 0.00 0.00 0.00 0.00 0.00 0.00 0.00 0.00 0.00 0.00 0.00 0.00 0.00 0.00
0.00 0.00 0.00 0.00 0.00 0.00 0.00 0.00 0.00 0.00 0.00 0.00 0.00 0.00 0.00 0.00 0.00 0.00 0.00 0.00 0.00 0.00 0.00 0.00 0.00 0.00 0.00 0.00 0.00 0.00 0.00 0.00 0.00 0.00 0.00 0.00 0.00 0.00 0.00 0.00 0.00 0.00 0.00 0.00
0.00 0.00 0.00 0.00 0.00 0.00 0.00 0.00 0.00 0.00 0.00 0.00 0.00 0.00 0.00 0.00 0.00 0.00 0.00 0.00 0.00 0.00 0.00 0.00 0.00 0.00 0.00 0.00 0.00 0.00 0.00 0.00 0.00 0.00 0.00 0.00 0.00 0.00 0.00 0.00 0.00 0.00 0.00 0.00
0.00 0.00 0.00 0.00 0.00 0.00 0.00 0.00 0.00 0.00 0.00 0.00 0.00 0.00 0.00 0.00 0.00 0.00 0.00 0.00 0.00 0.00 0.00 0.00 0.00 0.00 0.00 0.00 0.00 0.00 0.00 0.00 0.00 0.00 0.00 0.00 0.00 0.00 0.00 0.00 0.00 0.00 0.00 0.00
0.00 0.00 0.00 0.00 0.00 0.00 0.00 0.00 0.00 0.00 0.00 0.00 0.00 0.00 0.00 0.00 0.00 0.00 0.00 0.00 0.00 0.00 0.00 0.00 0.00 0.00 0.00 0.00 0.00 0.00 0.00 0.00 0.00 0.00 0.00 0.00 0.00 0.00 0.00 0.00 0.00 0.00 0.00 0.00
0.00 0.00 0.00 0.00 0.00 0.00 0.00 0.00 0.00 0.00 0.00 0.00 0.00 0.00 0.00 0.00 0.00 0.00 0.00 0.00 0.00 0.00 0.00 0.00 0.00 0.00 0.00 0.00 0.00 0.00 0.00 0.00 0.00 0.00 0.00 0.00 0.00 0.00 0.00 0.00 0.00 0.00 0.00 0.00
0.00 0.00 0.00 0.00 0.00 0.00 0.00 0.00 0.00 0.00 0.00 0.00 0.00 0.00 0.00 0.00 0.00 0.00 0.00 0.00 0.00 0.00 0.00 0.00 0.00 0.00 0.00 0.00 0.00 0.00 0.00 0.00 0.00 0.00 0.00 0.00 0.00 0.00 0.00 0.00 0.00 0.00 0.00 0.00
0.00 0.00 0.00 0.00 0.00 0.00 0.00 0.00 0.00 0.00 0.00 0.00 0.00 0.00 0.00 0.00 0.00 0.00 0.00 0.00 0.00 0.00 0.00 0.00 0.00 0.00 0.00 0.00 0.00 0.00 0.00 0.00 0.00 0.00 0.00 0.00 0.00 0.00 0.00 0.00 0.00 0.00 0.00 0.00
0.00 0.00 0.00 0.00 0.00 0.00 0.00 0.00 0.00 0.00 0.00 0.00 0.00 0.00 0.00 0.00 0.00 0.00 0.00 0.00 0.00 0.00 0.00 0.00 0.00 0.00 0.00 0.00 0.00 0.00 0.00 0.00 0.00 0.00 0.00 0.00 0.00 0.00 0.00 0.00 0.00 0.00 0.00 0.00
0.00 0.00 0.00 0.00 0.00 0.00 0.00 0.00 0.00 0.00 0.00 0.00 0.00 0.00 0.00 0.00 0.00 0.00 0.00 0.00 0.00 0.00 0.00 0.00 0.00 0.00 0.00 0.00 0.00 0.00 0.00 0.00 0.00 0.00 0.00 0.00 0.00 0.00 0.00 0.00 0.00 0.00 0.00 0.00
0.00 0.00 0.00 0.00 0.00 0.00 0.00 0.00 0.00 0.00 0.00 0.00 0.00 0.00 0.00 0.00 0.00 0.00 0.00 0.00 0.00 0.00 0.00 0.00 0.00 0.00 0.00 0.00 0.00 0.00 0.00 0.00 0.00 0.00 0.00 0.00 0.00 0.00 0.00 0.00 0.00 0.00 0.00 0.00
MSLP
1009.29 1008.76 1008.00 1006.92 1006.00 1005.45 1004.52 1003.32 1002.01 1000.16 999.15 997.90 997.63 997.91 998.03 997.18 996.49 995.60 996.28 995.32 994.52 993.56 992.71 992.20 992.18 992.60 992.45 992.75 993.37 993.79 994.48 995.07 995.82 996.76 997.80 998.86 999.87 1000.61 1001.45 1002.17 1003.09 1004.19 1005.37 1006.34
1008.82 1007.82 1006.88 1006.40 1005.26 1004.40 1003.68 1002.98 1002.39 1001.33 999.93 998.96 998.51 998.34 997.90 997.58 998.11 997.27 997.52 997.21 995.92 994.75 994.33 993.72 993.24 993.32 993.24 993.34 993.64 994.14 994.88 995.56 995.97 996.74 997.64 998.65 999.44 1000.36 1001.15 1002.08 1003.09 1003.92 1004.96 1005.96
1009.19 1008.45 1007.68 1006.02 1003.79 1003.12 1002.80 1002.48 1001.43 1000.75 1000.28 1000.04 999.45 999.03 998.75 998.32 998.12 997.97 998.59 997.73 996.99 996.23 995.81 995.16 993.94 993.88 994.16 994.16 994.22 994.71 995.53 996.22 996.64 997.05 997.68 998.74 999.48 1000.35 1000.96 1001.92 1002.83 1003.85 1004.78 1005.76
1009.82 1008.19 1006.29 1003.26 1001.91 1001.58 1001.35 1000.65 1000.45 1000.08 1000.22 1000.26 999.74 999.19 998.82 998.77 998.94 998.78 998.70 998.01 997.73 997.03 996.27 995.64 995.27 994.60 994.76 994.90 994.94 995.18 995.83 996.61 997.05 997.57 998.23 998.89 999.68 1000.32 1001.05 1001.77 1002.44 1003.24 1004.42 1005.38
1010.33 1009.21 1005.81 1003.08 1000.96 1000.00 999.99 999.66 999.22 998.95 999.15 999.39 999.36 999.26 998.59 998.81 999.44 999.36 999.00 998.42 998.71 997.51 997.03 995.80 995.59 995.36 994.89 995.45 995.73 995.98 996.51 996.88 997.34 997.65 998.16 998.75 999.58 1000.35 1001.14 1002.15 1003.08 1003.86 1004.42 1005.27
1010.18 1009.15 1006.60 1003.07 1001.70 1000.63 1000.54 1000.12 999.17 998.24 998.49 998.16 998.50 999.02 998.71 998.48 998.73 998.96 999.74 999.42 998.32 997.25 997.76 995.81 995.67 995.53 996.11 995.64 995.81 996.27 996.85 997.16 997.56 998.05 998.37 998.87 999.62 1000.39 1001.44 1002.31 1003.13 1004.00 1005.03 1005.68
1009.29 1008.30 1005.58 1002.78 1000.85 1000.40 1000.46 1000.85 999.62 998.69 998.35 998.05 998.20 997.96 997.56 997.33 997.56 997.97 998.27 998.70 998.74 998.43 997.65 997.16 996.50 995.73 995.88 995.91 996.16 996.53 996.96 997.39 997.89 998.48 998.96 999.45 1000.09 1000.72 1001.70 1002.69 1003.83 1004.74 1005.57 1006.37
1008.06 1007.38 1005.30 1002.48 1001.53 1001.53 1001.34 1000.20 999.36 998.64 998.25 998.20 997.99 997.48 997.04 996.99 996.95 996.92 997.03 996.79 997.67 998.63 998.15 997.61 997.27 996.34 996.50 996.34 995.77 996.35 997.05 997.48 998.09 998.84 999.50 999.93 1000.44 1001.35 1002.17 1003.13 1003.88 1005.24 1006.21 1007.03
1006.71 1005.54 1004.41 1003.54 1003.03 1001.60 1001.05 1000.26 999.23 998.63 998.42 998.35 998.16 997.81 997.60 997.20 996.81 996.60 996.56 996.57 996.77 997.06 997.44 997.36 996.96 997.14 996.90 996.35 996.15 996.69 997.23 997.73 998.20 998.99 999.47 1000.03 1000.85 1001.65 1002.46 1003.23 1004.24 1005.07 1005.83 1006.86
1006.53 1004.82 1004.41 1003.61 1002.22 1001.07 1000.49 999.97 999.24 998.83 998.53 998.37 998.39 998.21 997.91 997.71 997.11 996.87 996.39 996.45 996.78 996.97 997.03 997.53 996.65 997.19 997.15 996.62 996.24 996.83 997.38 997.68 998.10 998.86 999.48 1000.05 1000.96 1001.64 1002.47 1003.25 1004.07 1004.80 1005.52 1006.70
1004.95 1004.07 1003.16 1002.33 1001.84 1000.92 1000.32 999.86 999.49 999.07 998.85 998.84 998.56 998.34 998.34 998.16 997.74 997.33 996.92 996.78 996.63 996.71 996.85 997.23 997.57 997.52 997.16 996.71 996.29 996.81 997.70 997.99 998.40 998.88 999.41 1000.09 1000.63 1001.14 1001.94 1002.47 1002.83 1003.72 1004.64 1005.56
1003.87 1003.12 1003.02 1002.35 1001.35 1001.09 1000.75 1000.46 1000.14 999.85 999.44 999.25 999.02 998.86 998.72 998.32 997.96 997.59 997.11 996.86 996.80 996.76 997.06 996.98 996.82 996.82 996.76 996.83 996.19 997.01 997.73 998.12 998.54 999.02 999.31 999.97 1000.84 1001.70 1002.11 1002.45 1002.84 1003.45 1004.24 1005.03
1003.48 1002.67 1001.94 1001.38 1001.11 1001.11 1001.08 1000.93 1000.73 1000.57 1000.38 1000.07 999.72 999.54 999.23 999.05 998.60 997.93 997.51 997.24 997.06 996.65 996.38 996.62 996.95 996.56 996.49 996.32 996.17 996.68 997.37 998.00 998.28 998.97 999.56 999.96 1000.46 1001.38 1002.56 1003.36 1003.47 1003.95 1004.64 1005.24
1002.88 1002.17 1002.10 1001.77 1001.65 1001.54 1001.49 1001.35 1001.28 1001.21 1000.98 1000.72 1000.42 1000.00 999.77 999.23 998.56 998.29 998.04 997.67 997.30 996.96 996.68 996.25 996.11 995.91 995.96 996.01 996.33 996.55 996.76 997.22 998.00 998.54 999.15 999.73 1000.36 1000.87 1001.80 1002.88 1003.58 1004.44 1005.33 1005.64
1002.45 1002.58 1002.56 1002.34 1002.19 1002.11 1002.14 1002.09 1001.88 1001.59 1001.19 1000.89 1000.75 1000.60 1000.10 999.57 999.05 998.51 997.86 997.53 997.28 997.11 996.90 996.68 996.13 995.45 995.37 995.61 995.98 996.26 996.80 997.28 997.60 998.02 998.70 999.24 999.92 1000.67 1001.26 1002.42 1003.30 1004.20 1005.39 1006.10
1003.03 1002.84 1002.61 1002.58 1002.54 1002.32 1002.35 1002.30 1002.12 1002.02 1001.99 1001.77 1001.28 1000.62 1000.01 999.52 999.09 998.62 998.06 997.67 997.49 996.94 996.64 996.67 996.48 995.50 995.18 995.26 995.52 995.84 996.07 996.22 996.89 997.38 997.84 998.89 999.71 1000.45 1001.11 1001.83 1002.56 1003.48 1004.60 1005.28
1003.41 1003.15 1003.28 1003.16 1003.00 1002.48 1002.12 1002.14 1002.07 1001.71 1001.39 1001.25 1000.97 1000.70 1000.21 999.48 998.67 998.10 997.58 997.32 996.74 996.21 995.97 996.11 995.61 995.38 995.24 995.25 994.91 994.96 995.24 995.64 995.97 996.56 997.10 997.46 998.24 999.84 1000.92 1001.18 1001.56 1002.36 1003.24 1004.22
1004.08 1003.96 1003.80 1003.60 1003.27 1002.61 1001.88 1001.64 1001.40 1001.13 1000.74 1000.38 999.96 999.38 998.84 998.37 997.52 996.65 996.16 996.01 995.42 995.11 994.93 994.78 994.69 994.69 994.76 994.75 994.63 994.19 994.22 994.63 995.23 995.60 996.18 997.06 997.68 998.03 999.77 1000.63 1001.13 1001.43 1002.40 1003.48
1004.20 1003.92 1003.63 1003.33 1003.11 1002.96 1002.68 1002.08 1001.49 1000.83 1000.26 999.94 999.44 998.78 998.11 997.48 996.64 995.80 995.21 994.57 994.26 993.86 992.87 993.70 993.65 993.81 993.88 993.62 993.65 993.56 993.35 993.90 994.39 994.76 995.30 995.92 996.91 997.52 998.02 998.96 1000.03 1000.75 1001.71 1002.72
1004.35 1004.04 1003.72 1003.42 1003.03 1002.84 1002.43 1002.06 1001.59 1001.06 1000.41 999.81 999.30 998.60 997.66 996.77 995.98 995.04 994.25 993.24 992.74 992.28 992.11 992.17 992.24 992.21 991.99 991.96 992.26 992.45 992.24 992.63 993.26 993.96 994.70 995.40 995.94 996.48 997.22 997.84 999.16 999.93 1000.45 1002.00
1004.24 1003.96 1003.75 1003.42 1003.04 1002.65 1002.14 1001.70 1001.28 1000.66 1000.07 999.54 998.96 998.22 997.46 996.64 995.81 994.90 993.88 992.65 991.96 991.60 991.32 991.30 991.41 991.59 991.79 991.80 992.00 992.30 992.37 992.59 992.88 993.26 993.74 994.28 995.05 995.81 996.53 997.38 998.44 999.12 999.91 1000.67
1004.18 1003.91 1003.68 1003.40 1003.06 1002.56 1002.00 1001.48 1000.95 1000.47 999.91 999.16 998.52 997.70 996.89 996.08 995.27 994.30 993.52 992.77 991.82 991.29 990.91 990.70 990.54 990.54 990.83 991.15 991.43 991.46 991.55 991.78 992.07 992.30 992.72 993.25 993.85 994.81 995.63 996.53 997.50 998.37 999.32 999.31
1004.00 1003.66 1003.51 1003.23 1002.94 1002.51 1001.99 1001.37 1000.75 1000.30 999.69 999.00 998.29 997.45 996.74 995.73 994.82 993.91 992.76 991.65 991.37 990.87 990.45 989.92 989.68 989.60 989.67 989.89 990.11 990.25 990.34 990.51 990.79 990.99 991.30 991.90 992.52 993.38 994.25 995.03 996.04 997.25 998.04 998.88
1003.68 1003.36 1003.27 1002.99 1002.80 1002.28 1001.96 1001.18 1000.65 1000.10 999.54 998.79 998.15 997.43 996.48 995.25 994.13 993.36 992.53 991.55 990.72 990.11 989.55 989.11 988.79 988.63 988.71 988.72 988.80 988.94 989.04 989.09 989.27 989.64 990.01 990.62 991.48 992.25 993.18 993.93 994.99 996.03 997.18 998.19
1003.39 1003.14 1003.02 1002.84 1002.51 1002.08 1001.60 1001.13 1000.55 999.97 999.31 998.46 997.82 997.08 996.25 995.38 994.47 993.13 992.12 991.20 990.33 989.56 988.84 988.28 987.81 987.43 987.26 987.17 987.22 987.34 987.57 987.74 988.04 988.40 988.78 989.39 990.22 991.11 992.13 993.00 994.14 995.30 996.58 997.61
1003.39 1003.14 1002.83 1002.71 1002.36 1001.92 1001.44 1000.98 1000.61 1000.03 999.35 998.48 997.71 996.97 996.12 995.23 994.23 993.16 992.14 991.17 990.28 989.51 988.76 988.04 987.42 986.90 986.48 986.13 985.86 985.80 985.96 986.27 986.65 987.16 987.86 988.72 989.63 990.56 991.54 992.63 993.94 995.08 996.19 997.30
1003.56 1003.29 1002.87 1002.71 1002.19 1001.75 1001.31 1000.91 1000.52 999.98 999.37 998.76 998.02 997.08 996.27 995.35 994.40 993.43 992.44 991.48 990.54 989.72 989.01 988.33 987.71 987.19 986.69 986.28 985.97 985.73 985.58 985.74 986.07 986.76 987.66 988.66 989.70 990.67 991.78 992.77 993.95 995.08 996.19 997.39
Thickness
5408 5419 5419 5429 5440 5452 5463 5482 5503 5550 5552 5581 5579 5585 5586 5599 5616 5631 5634 5657 5672 5685 5702 5715 5722 5725 5733 5737 5737 5737 5735 5734 5732 5728 5722 5716 5710 5707 5700 5699 5692 5682 5673 5668
5418 5434 5441 5435 5451 5458 5470 5479 5496 5514 5536 5562 5559 5572 5582 5588 5594 5606 5614 5628 5647 5661 5675 5691 5704 5710 5715 5720 5721 5721 5718 5714 5714 5713 5710 5704 5702 5698 5693 5687 5679 5672 5663 5657
5396 5426 5425 5422 5453 5467 5480 5487 5504 5512 5534 5526 5542 5554 5563 5577 5592 5593 5592 5605 5619 5636 5650 5664 5682 5691 5694 5700 5704 5703 5700 5697 5697 5699 5697 5694 5692 5688 5686 5679 5672 5661 5655 5650
5394 5405 5375 5460 5478 5482 5479 5492 5504 5516 5510 5513 5529 5544 5557 5567 5578 5584 5581 5591 5602 5616 5631 5643 5655 5668 5674 5680 5684 5687 5686 5685 5686 5686 5683 5682 5680 5678 5676 5673 5669 5661 5652 5646
5368 5384 5429 5458 5477 5489 5489 5496 5508 5518 5515 5516 5527 5534 5550 5560 5559 5564 5570 5581 5581 5598 5609 5629 5636 5646 5657 5660 5664 5668 5670 5673 5673 5675 5674 5672 5670 5668 5665 5659 5654 5649 5646 5640
5363 5368 5364 5453 5473 5477 5478 5470 5498 5509 5512 5521 5524 5518 5525 5550 5551 5552 5551 5556 5570 5583 5588 5616 5623 5630 5632 5643 5650 5654 5655 5659 5661 5660 5661 5661 5659 5656 5650 5646 5642 5637 5630 5626
5386 5395 5414 5450 5471 5478 5464 5459 5485 5495 5501 5511 5513 5523 5535 5546 5549 5550 5552 5552 5558 5570 5572 5586 5599 5616 5623 5630 5634 5638 5641 5643 5645 5644 5644 5644 5642 5639 5635 5630 5624 5619 5614 5610
5373 5384 5403 5455 5464 5455 5457 5468 5479 5485 5492 5497 5505 5517 5527 5533 5540 5550 5554 5566 5561 5549 5558 5568 5580 5596 5603 5611 5624 5625 5626 5630 5630 5629 5628 5629 5628 5623 5620 5616 5612 5603 5599 5595
5393 5396 5422 5429 5435 5449 5452 5461 5474 5480 5484 5487 5493 5502 5511 5520 5528 5536 5545 5550 5554 5551 5557 5563 5571 5576 5582 5596 5609 5609 5609 5611 5616 5615 5616 5617 5613 5610 5607 5604 5599 5596 5593 5587
5389 5412 5412 5413 5433 5447 5453 5455 5468 5473 5477 5479 5479 5483 5491 5500 5512 5519 5530 5536 5534 5534 5539 5541 5561 5562 5569 5580 5589 5590 5593 5600 5604 5603 5603 5605 5602 5601 5596 5594 5589 5587 5585 5578
5391 5406 5417 5428 5432 5444 5450 5454 5459 5465 5471 5471 5475 5478 5481 5487 5494 5503 5512 5519 5524 5525 5528 5528 5529 5537 5547 5563 5576 5577 5574 5580 5585 5588 5590 5588 5591 5592 5589 5590 5589 5586 5582 5576
5380 5403 5404 5414 5430 5435 5440 5445 5447 5451 5455 5459 5463 5466 5469 5475 5481 5487 5496 5503 5507 5511 5512 5519 5520 5527 5539 5547 5561 5560 5560 5564 5569 5569 5573 5573 5571 5568 5570 5573 5574 5573 5571 5568
5387 5404 5415 5420 5427 5428 5428 5427 5429 5431 5433 5437 5443 5445 5449 5452 5459 5468 5476 5486 5492 5501 5507 5507 5510 5517 5525 5530 5542 5548 5547 5547 5552 5554 5556 5559 5559 5558 5553 5548 5554 5554 5553 5551
5392 5402 5406 5409 5408 5411 5413 5416 5416 5417 5419 5421 5425 5431 5433 5439 5447 5451 5457 5464 5471 5477 5484 5497 5501 5509 5512 5518 5520 5525 5532 5531 5536 5541 5543 5544 5544 5543 5540 5538 5538 5534 5531 5532
5393 5388 5392 5396 5397 5398 5398 5397 5398 5400 5404 5407 5408 5408 5412 5418 5425 5434 5444 5447 5447 5449 5456 5463 5476 5490 5493 5497 5501 5506 5503 5507 5517 5524 5524 5527 5528 5526 5527 5523 5523 5520 5514 5512
5378 5377 5380 5381 5382 5384 5384 5383 5383 5383 5382 5382 5386 5394 5400 5405 5409 5415 5422 5428 5429 5440 5444 5440 5445 5474 5477 5475 5477 5478 5485 5491 5493 5503 5508 5506 5509 5509 5509 5510 5509 5507 5504 5504
5360 5364 5361 5363 5366 5373 5376 5374 5373 5374 5375 5374 5376 5378 5383 5390 5397 5403 5407 5407 5412 5420 5428 5429 5442 5446 5449 5455 5463 5467 5470 5472 5480 5484 5490 5497 5498 5494 5493 5494 5497 5496 5496 5493
5351 5351 5353 5356 5359 5363 5369 5366 5365 5364 5365 5368 5370 5374 5378 5380 5388 5396 5400 5400 5407 5412 5419 5423 5427 5432 5430 5436 5445 5453 5456 5459 5459 5464 5468 5472 5479 5485 5479 5479 5481 5485 5483 5479
5346 5347 5348 5349 5349 5349 5346 5350 5354 5358 5360 5360 5361 5364 5368 5371 5377 5383 5387 5393 5398 5405 5424 5409 5411 5411 5417 5421 5426 5434 5442 5443 5445 5448 5450 5454 5456 5462 5467 5469 5468 5470 5469 5467
5337 5337 5337 5337 5339 5336 5337 5339 5342 5344 5347 5350 5349 5350 5356 5360 5364 5371 5376 5386 5392 5398 5403 5404 5405 5410 5417 5418 5417 5424 5433 5437 5436 5435 5432 5434 5441 5449 5453 5457 5455 5456 5460 5454
5330 5330 5328 5328 5330 5330 5332 5333 5334 5337 5339 5339 5338 5338 5339 5341 5345 5350 5358 5370 5378 5380 5386 5391 5395 5398 5398 5400 5402 5406 5411 5415 5417 5420 5421 5422 5424 5432 5437 5441 5442 5445 5448 5447
5323 5322 5320 5321 5321 5324 5326 5327 5329 5330 5330 5333 5333 5334 5332 5328 5327 5331 5336 5345 5355 5361 5369 5377 5386 5392 5394 5394 5395 5398 5401 5403 5406 5408 5409 5408 5410 5415 5420 5425 5428 5433 5434 5442
5317 5317 5315 5316 5315 5316 5312 5315 5323 5323 5324 5324 5325 5327 5324 5320 5317 5319 5325 5332 5341 5347 5356 5368 5376 5383 5387 5389 5391 5392 5395 5397 5399 5402 5405 5404 5408 5411 5416 5421 5423 5424 5428 5427
5309 5310 5308 5310 5306 5311 5312 5315 5317 5315 5315 5317 5318 5320 5319 5320 5319 5316 5319 5325 5333 5340 5349 5359 5367 5374 5377 5381 5383 5385 5388 5393 5398 5400 5403 5403 5403 5406 5409 5413 5415 5416 5417 5416
5301 5302 5301 5303 5303 5305 5308 5308 5311 5310 5313 5316 5316 5317 5317 5314 5312 5317 5320 5325 5331 5338 5347 5355 5362 5369 5374 5378 5381 5384 5386 5390 5394 5398 5402 5404 5404 5405 5406 5409 5410 5408 5407 5405
5293 5295 5296 5295 5296 5300 5302 5304 5304 5304 5307 5310 5311 5314 5315 5314 5313 5316 5319 5323 5328 5333 5340 5348 5355 5362 5369 5374 5379 5384 5388 5392 5395 5398 5400 5401 5400 5401 5403 5405 5401 5399 5398 5395
5284 5285 5288 5281 5284 5295 5297 5298 5298 5300 5301 5303 5304 5309 5311 5313 5311 5314 5318 5320 5323 5327 5331 5336 5343 5351 5360 5366 5369 5374 5381 5387 5392 5393 5393 5392 5392 5394 5394 5395 5394 5390 5387 5385